Regional Weather Roundup
Issued by NWS

Home | Current Version | Previous Version | Graphics & Text | Print | Product List | Glossary On
Versions: 1 2 3 4 5 6 7 8 9 10 11 12 13 14 15 16 17 18 19 20 21 22 23 24 25 26 27 28 29 30 31 32 33 34 35 36 37 38 39 40 41 42 43 44 45 46 47 48 49 50
000
ASUS43 KLMK 191410
RWRKY
KENTUCKY REGIONAL WEATHER ROUNDUP
NATIONAL WEATHER SERVICE LOUISVILLE KY
1000 AM EDT SAT APR 19 2014

NOTE "FAIR" INDICATES FEW OR NO CLOUDS BELOW 12,000 FEET
WITH NO SIGNIFICANT WEATHER AND/OR OBSTRUCTIONS TO VISIBILITY.

KYZ001>023-026-027-061>063-070>075-191500-
WESTERN AND SOUTH CENTRAL KENTUCKY

CITY           SKY/WX    TMP DP  RH WIND       PRES   REMARKS
PADUCAH        SUNNY     63  46  54 E9        30.24R
HENDERSON      SUNNY     57  41  54 NE12      30.27S
OWENSBORO      SUNNY     60  43  53 NE8       30.28R
HOPKINSVILLE   SUNNY     63  46  55 NE12      30.24R
BOWLING GREEN  SUNNY     61  43  51 NE10      30.25S
GLASGOW        SUNNY     60  42  51 NE7       30.24S
$$

KYZ024-025-028>034-038-045-046-053-191500-
NORTH CENTRAL KENTUCKY

CITY           SKY/WX    TMP DP  RH WIND       PRES   REMARKS
LOUISVILLE/SDF MOSUNNY   60  41  49 NE6       30.29R
LOUISVILLE/LOU SUNNY     62  41  46 NE10      30.29R
FORT KNOX      SUNNY     60  40  48 NE10      30.27R
$$

KYZ035>037-039>044-047>052-055>060-089>105-191500-
NORTHEAST KENTUCKY

CITY           SKY/WX    TMP DP  RH WIND       PRES   REMARKS
LEXINGTON      SUNNY     61  43  51 NE13      30.27S
COVINGTON      MOSUNNY   57  43  59 E12       30.31R
FRANKFORT      SUNNY     59  42  53 NE8       30.27R
$$

KYZ054-064>069-076>088-106>120-191500-
SOUTHEAST KENTUCKY

CITY           SKY/WX    TMP DP  RH WIND       PRES   REMARKS
JACKSON        MOSUNNY   64  36  35 VRB6      30.24R
LONDON         PTSUNNY   63  37  38 NE9       30.22S
SOMERSET       SUNNY     59  37  44 NE9       30.24S
MIDDLESBORO    PTSUNNY   60  39  46 CALM      30.20F
MONTICELLO     PTSUNNY   58  43  57 NE12      30.25R
$$




USA.gov is the U.S. government's official web portal to all federal, state and local government web resources and services.